FW6799 Weather Reports


Display with metric or nautical units.
time (UTC)temp
F
wind
direction
speed
MPH
gust
MPH
rain 1hr
in
rain 24hr
in
rain mn
in
humidity
%
barometer
mb
20260504190511 61 95 6.0 12.0 0.00 0.00 0.00 36 1017.8
20260504190409 61 95 6.0 12.0 0.00 0.00 0.00 36 1017.8
20260504184641 62 140 8.0 15.0 0.00 0.00 0.00 35 1017.9
20260504183137 62 180 8.0 12.0 0.00 0.00 0.00 35 1018.0
20260504180154 62 136 5.0 12.0 0.00 0.00 0.00 34 1018.2
20260504180108 62 136 5.0 12.0 0.00 0.00 0.00 34 1018.2
20260504173336 62 131 4.0 9.0 0.00 0.00 0.00 33 1018.6
20260504171656 62 131 3.0 7.0 0.00 0.00 0.00 33 1018.5
20260504170150 62 135 3.0 7.0 0.00 0.00 0.00 32 1018.5
20260504120114 71 150 8.0 13.0 0.00 0.00 0.00 26 1019.3
20260504081549 81 79 9.0 17.0 0.00 0.00 0.00 20 1017.3
20260504044552 80 128 10.0 15.0 0.00 0.00 0.00 22 1018.5
20260504043109 81 127 8.0 17.0 0.00 0.00 0.00 22 1018.9
20260504041549 80 151 10.0 15.0 0.00 0.00 0.00 22 1019.2
20260504040049 80 93 10.0 17.0 0.00 0.00 0.00 22 1019.7
20260504034552 80 147 11.0 17.0 0.00 0.00 0.00 22 1019.7
20260504033050 79 93 10.0 19.0 0.00 0.00 0.00 23 1019.9
20260504031554 79 141 11.0 17.0 0.00 0.00 0.00 23 1020.3
20260504030101 77 93 11.0 21.0 0.00 0.00 0.00 24 1020.6
20260504024550 77 108 11.0 18.0 0.00 0.00 0.00 25 1020.9
20260504023048 77 101 11.0 17.0 0.00 0.00 0.00 24 1020.9
20260504021549 76 180 10.0 21.0 0.00 0.00 0.00 25 1021.0
20260504020053 75 115 11.0 24.0 0.00 0.00 0.00 26 1021.1
20260504014544 74 114 14.0 22.0 0.00 0.00 0.00 26 1021.4
20260504013053 74 110 13.0 19.0 0.00 0.00 0.00 27 1021.5
20260504011547 72 101 9.0 17.0 0.00 0.00 0.00 28 1021.5
20260504010056 73 76 8.0 20.0 0.00 0.00 0.00 28 1021.4
20260504004547 71 133 9.0 24.0 0.00 0.00 0.00 29 1021.3
20260504003049 70 131 9.0 23.0 0.00 0.00 0.00 30 1021.0
20260504001556 68 76 9.0 20.0 0.00 0.00 0.00 31 1021.1
20260504000054 67 114 9.0 15.0 0.00 0.00 0.00 32 1021.0
20260503234551 66 129 9.0 16.0 0.00 0.00 0.00 33 1020.8
20260503233053 65 141 6.0 12.0 0.00 0.00 0.00 34 1020.7
20260503231551 64 149 3.0 10.0 0.00 0.00 0.00 34 1020.5
20260503230114 63 137 5.0 11.0 0.00 0.00 0.00 35 1020.5
20260503224547 62 110 5.0 10.0 0.00 0.00 0.00 35 1020.3
20260503223109 62 133 3.0 10.0 0.00 0.00 0.00 35 1020.1
20260503221555 62 133 4.0 10.0 0.00 0.00 0.00 34 1020.0
20260503220107 62 133 5.0 10.0 0.00 0.00 0.00 34 1019.5
20260503214859 62 138 5.0 12.0 0.00 0.00 0.00 33 1019.3